Location: Jonen
(52.7189°N, 6.0177°E)
Time: 17:09:20
(UTC+00:00)

Envisat - Visible Passes

Search period start: 13 May 2026 00:00
Search period end: 23 May 2026 00:00
Orbit: 761 x 762 km, 98.4° (Epoch: 13 May)

Date Brightness Start Highest point End Pass type
(mag) Time Alt. Az. Time Alt. Az. Time Alt. Az.
13 May 4.0 01:50:08 10° NNE 01:54:58 42° E 01:59:46 10° S visible
14 May 5.0 01:12:53 10° NE 01:16:48 22° E 01:20:42 10° SE visible
14 May 3.1 02:51:10 10° N 02:56:12 66° WNW 03:01:13 10° SSW visible
15 May 5.6 00:37:09 10° ENE 00:38:26 11° E 00:39:42 10° E visible
15 May 3.3 02:13:18 10° NNE 02:18:23 65° ESE 02:23:24 10° S visible
16 May 4.4 01:35:46 10° NNE 01:40:21 33° E 01:44:54 10° SSE visible
17 May 5.3 00:58:49 10° NE 01:02:06 17° E 01:05:23 10° SE visible
17 May 3.0 02:36:36 10° NNE 02:41:43 84° WNW 02:46:46 10° SSW visible
18 May 3.7 01:58:51 10° NNE 02:03:48 50° E 02:08:43 10° S visible
19 May 4.8 01:21:29 10° NE 01:25:42 26° E 01:29:53 10° SSE visible
20 May 5.4 00:45:02 10° ENE 00:47:22 13° E 00:49:41 10° ESE visible
20 May 3.2 02:22:05 10° NNE 02:27:11 76° ESE 02:32:14 10° S visible
21 May 4.2 01:44:27 10° NNE 01:49:12 38° E 01:53:55 10° SSE visible
22 May 5.1 01:07:18 10° NE 01:11:01 20° E 01:14:42 10° SE visible
